Showing default

YAOGAN-31 A, 43275

Orbit data source: Space-Track

YAOGAN-31 A, 43275 is a payload satellite owned by PLA SSF (CN) in LEO that was launched on Tue, 10 Apr 2018 UTC via a CHANG ZHENG 4C launch vehicle from the Jiuquan Satellite Launch Center, China (JSC). Payload-class satellites include a variety of spacecraft equipped with specific instruments for various scientific and technological missions. These include communications satellites like Starlink; space stations such as the ISS; scientific satellites like the Hubble; Earth observation satellites from companies like Planet Labs, Umbra, and HawkEye 360; GPS; miniature CubeSats for education and research; and military/defense satellites.

Loading next visibility...
Identifier
43275, 2018-034A
Orbit
LEO
Last TLE update
6 hours ago
Origin
Manufacturer
DFH
Mission
Operational Defense Sigint
Bus & Motor
JB-8B, Unknown motor
Mass
~500 kg wet, ~500 kg dry
Launch date (UTC)
2018-04-10 (7 years ago)
Launch vehicle
CHANG ZHENG 4C
Launch site
Jiuquan Satellite Launch Center, China (JSC)
Object type
Payload
Rocket body
Debris
Shape & HBR
Box + 2 Pan, 1 m
Radar Cross Section
0.446 m², Large (>1 m²)

Expand to show TLE details & history

TLE from 6 hours ago
0 YAOGAN-31 A
1 43275U 18034A   25184.25483216 -.00000077  00000-0  18688-4 0  9998
2 43275  63.3967 268.8992 0244153   6.3357 354.0661 13.45412042355266
Epoch: 2025-07-03T06:06Z
TLE epoch observation values (Epoch: 2025-07-03T06:06:57.498Z)
Latitude
-0.00005°
Longitude
-104.36461°
Altitude
909.645 km
Speed
7.487 km/s
True Right ascension
17h 55m 35s
True Declination
0° 00' 00"
Sunlit
Object was in full shadow at epoch
Visualization orbit readout
Latitude
62.521°
Longitude
-31.64706°
Altitude
1,050.649 km
Speed
7.357 km/s
Apparent Right ascension
13h 23m 41s
Apparent Declination
55° 16' 39"
Sunlit
Object is in daylight
Visualization observer readout
Local Sidereal Time
23:38:11
Azimuth
345.201° N
Elevation
7.817°
Doppler factor
1
Orbital elements
Apogee altitude
1,270.304 km
Perigee altitude
905.727 km
Semi-major axis
7,466.152 km
Eccentricity
0.02442
Inclination
63.3967°
RAAN
268.8992°
Arg. of periapsis
6.3357°
True anomaly
Unknown
Mean anomaly
354.0661°
Eccentric anomaly
Unknown
Mean motion
3.36432 °/min
Orbital period
107.01 mins
BSTAR
0.000018688
Loading maneuver chart data...
Loading SW <> Apogee altitude chart data...
Loading historical data...
Loading historical data...
Loading historical data...
Loading historical data...
Loading historical data...
Loading historical data...
Loading historical data...

YAOGAN-31 A Visibility forecast

Observer location: undefined°, undefined°

Span
Click to sort rows by Start time (UTC) header in descending order
Start Az.
Max El. time (UTC)
Max El. Az.
Max El.
End time (UTC)
End Az.
7 mins2025-07-03 13:43:36.969Z354.21° N2025-07-03 13:47:36.969Z30.178° NE15.154°2025-07-03 13:50:36.969Z56.327° ENE
12 mins2025-07-03 15:34:36.969Z340.936° N2025-07-03 15:39:36.969Z49.74° ENE38.11°2025-07-03 15:46:36.969Z123.979° SE
12 mins2025-07-03 17:24:36.969Z305.467° NW2025-07-03 17:29:36.969Z254.449° W30.868°2025-07-03 17:36:36.969Z184.716° SSW
10 mins2025-07-04 07:13:36.969Z200.222° SSW2025-07-04 07:17:36.969Z141.763° SSE43.147°2025-07-04 07:23:36.969Z38.625° NE
8 mins2025-07-04 09:05:36.969Z279.372° WNW2025-07-04 09:08:36.969Z315.631° NNW22.615°2025-07-04 09:13:36.969Z11.73° NNE
|